DW2516 Weather Reports


Display with metric or nautical units.
time (UTC)temp
F
wind
direction
speed
MPH
gust
MPH
rain 1hr
in
rain 24hr
in
rain mn
in
humidity
%
barometer
mb
20191114181605 42 85 7.0 22.0 0.00 0.01 0.00 92 1010.2
20191114180127 42 138 10.0 15.0 0.00 0.01 0.00 91 1010.0
20191114174710 42 80 8.0 15.0 0.00 0.01 0.00 90 1010.1
20191114173133 42 69 8.0 14.0 0.00 0.01 0.00 89 1010.0
20191114171639 43 76 7.0 15.0 0.00 0.01 0.00 89 1010.1
20191114170105 43 56 4.0 14.0 0.00 0.01 0.00 88 1009.9
20191114164625 43 142 2.0 8.0 0.00 0.01 0.00 88 1010.0
20191114163141 43 68 5.0 13.0 0.00 0.01 0.00 88 1010.0
20191114161600 43 143 5.0 11.0 0.00 0.01 0.00 88 1010.1
20191114160124 43 130 3.0 15.0 0.00 0.01 0.00 88 1009.9
20191114154551 43 136 3.0 11.0 0.00 0.01 0.00 88 1009.8
20191114153110 43 150 2.0 10.0 0.00 0.01 0.00 87 1009.7
20191114151615 44 136 4.0 12.0 0.00 0.01 0.00 86 1009.8
20191114150049 45 79 4.0 12.0 0.00 0.01 0.00 85 1009.8
20191114144611 45 99 4.0 16.0 0.00 0.01 0.00 85 1009.8
20191114143116 46 104 5.0 19.0 0.00 0.01 0.00 84 1009.8
20191114141533 46 57 2.0 11.0 0.00 0.01 0.00 84 1009.9
20191114140057 46 195 4.0 11.0 0.00 0.01 0.00 84 1009.9
20191114134537 46 94 2.0 12.0 0.00 0.01 0.00 83 1009.9
20191114133053 46 195 4.0 11.0 0.00 0.01 0.00 82 1010.0
20191114131616 46 67 5.0 13.0 0.00 0.01 0.00 81 1009.9
20191114130107 46 143 4.0 11.0 0.00 0.01 0.00 80 1009.9
20191114114620 46 185 6.0 10.0 0.00 0.01 0.00 77 1010.5
20191114113117 46 130 5.0 9.0 0.00 0.01 0.00 78 1010.4
20191114111613 46 192 5.0 12.0 0.00 0.01 0.00 77 1010.4
20191114110054 47 171 6.0 14.0 0.00 0.01 0.00 75 1010.4
20191114104558 45 138 3.0 9.0 0.00 0.01 0.00 82 1010.5
20191114103041 44 82 7.0 13.0 0.00 0.01 0.00 85 1010.6
20191114101607 43 94 6.0 16.0 0.00 0.01 0.00 83 1011.0
20191114100103 44 185 4.0 11.0 0.00 0.01 0.00 85 1011.1
20191114094601 44 192 3.0 10.0 0.00 0.01 0.00 90 1011.2
20191114093028 42 160 3.0 9.0 0.00 0.01 0.00 96 1011.4
20191114091617 41 192 4.0 9.0 0.00 0.01 0.00 97 1011.6
20191114090019 40 155 2.0 6.0 0.00 0.01 0.00 97 1011.6
20191114084513 38 134 1.0 7.0 0.00 0.01 0.00 96 1011.7
20191114083016 38 72 0.0 6.0 0.00 0.01 0.00 96 1011.6
20191114081502 38 151 1.0 5.0 0.00 0.01 0.00 96 1011.3
20191114080152 36 189 0.0 3.0 0.00 0.01 0.00 96 1011.2
20191114074735 34 171 1.0 4.0 0.00 0.01 0.00 96 1011.2
20191114073234 33 177 0.0 4.0 0.00 0.01 0.00 96 1011.2
20191114071636 33 178 1.0 4.0 0.00 0.01 0.00 96 1011.0
20191114070215 32 157 0.0 2.0 0.00 0.01 0.00 96 1010.8
20191114064706 0 0.0 0.0 0.00 0.01 0.00 1010.7
20191114063118 0 0.0 0.0 0.00 0.01 0.00 1010.7
20191114061639 0 0.0 0.0 0.00 0.01 0.00 1010.5
20191114060201 0 0.0 0.0 0.00 0.01 0.00 1010.4
20191114054552 0 0.0 0.0 0.00 0.01 0.00 1010.3
20191114053055 0 0.0 0.0 0.00 0.01 0.00 1010.2
20191114051609 0 0.0 0.0 0.00 0.01 0.00 1010.0
20191114050025 0 0.0 0.0 0.00 0.01 0.00 1010.1
20191114044512 0 0.0 0.0 0.00 0.01 0.00 1009.9
20191114043024 0 0.0 0.0 0.00 0.01 0.00 1009.9
20191114041505 0 0.0 0.0 0.00 0.01 0.00 1009.9
20191114040146 0 0.0 0.0 0.00 0.01 0.00 1009.8
20191114034712 0 0.0 0.0 0.00 0.01 0.00 1009.9
20191114033128 0 0.0 0.0 0.00 0.01 0.00 1009.8
20191114031617 0 0.0 0.0 0.00 0.01 0.00 1009.8
20191114030049 0 0.0 0.0 0.00 0.01 0.00 1009.8
20191114024550 0 0.0 0.0 0.00 0.01 0.00 1009.8
20191114023047 0 0.0 0.0 0.00 0.01 0.00 1009.9
20191114021600 0 0.0 0.0 0.00 0.01 0.00 1009.8
20191114020016 0 0.0 0.0 0.00 0.01 0.00 1009.8
20191114014520 0 0.0 0.0 0.00 0.01 0.00 1009.7
20191114013038 0 0.0 0.0 0.00 0.01 0.00 1009.7
20191114011504 0 0.0 0.0 0.00 0.01 0.00 1009.7
20191114010125 0 0.0 0.0 0.00 0.01 0.00 1009.7
20191114004547 0 0.0 0.0 0.00 0.01 0.00 1009.4
20191114003207 0 0.0 0.0 0.00 0.01 0.00 1009.2
20191114001619 0 0.0 0.0 0.00 0.01 0.00 1009.0
20191114000126 0 0.0 0.0 0.00 0.01 0.00 1008.9
20191113234611 0 0.0 0.0 0.00 0.01 0.00 1008.7
20191113233121 0 0.0 0.0 0.00 0.01 0.00 1008.5
20191113231612 34 319 0.0 0.0 0.00 0.01 0.00 96 1008.6
20191113230127 35 328 0.0 6.0 0.00 0.01 0.00 96 1008.4
20191113224551 35 325 0.0 8.0 0.00 0.01 0.01 96 1008.3
20191113223146 36 39 1.0 11.0 0.00 0.01 0.01 96 1007.8
20191113221631 36 355 2.0 11.0 0.00 0.01 0.01 96 1007.9
20191113220146 36 347 5.0 10.0 0.00 0.01 0.01 96 1008.0
20191113214541 36 344 4.0 15.0 0.00 0.01 0.01 96 1007.6
20191113213044 36 332 6.0 17.0 0.00 0.01 0.01 96 1007.1
20191113211602 37 329 5.0 19.0 0.00 0.01 0.01 96 1007.0
20191113210050 37 17 5.0 14.0 0.00 0.01 0.01 96 1007.1
20191113204524 37 346 5.0 15.0 0.00 0.01 0.01 96 1006.9
20191113203018 37 319 6.0 14.0 0.00 0.01 0.01 96 1006.6
20191113201538 37 326 7.0 19.0 0.00 0.01 0.01 96 1006.4
20191113200014 37 327 8.0 20.0 0.00 0.01 0.01 96 1006.2
20191113194518 37 315 4.0 23.0 0.00 0.01 0.01 96 1005.9
20191113193011 37 360 9.0 17.0 0.00 0.01 0.01 96 1005.6
20191113191709 37 24 6.0 12.0 0.00 0.01 0.01 96 1005.5
20191113190159 37 342 8.0 19.0 0.01 0.01 0.01 96 1005.1
20191113184652 37 326 6.0 14.0 0.01 0.02 0.01 96 1004.7
20191113183143 37 298 5.0 19.0 0.01 0.02 0.01 96 1004.5